Simultaneous Nadir Overpasses (SNOs) Predictions

Prediction of SNOs between GOES-16 and METOP-C Satellite Orbit:

Table of predicted SNOs for the next 14.0 days since TLE Epoch: 6/6/2022
Index Date Time (GOES-16) GOES-16 Lat,Lon METOP-C Lat,Lon Distance(km) Time Diff (sec)
1 06/07/2022 02:15:57 -0.05, -75.19 0.86, -71.02 474.25 80
2 06/08/2022 14:32:09 0.04, -75.20 0.15, -75.58 43.98 80
3 06/11/2022 02:30:31 -0.04, -75.20 -0.06, -75.20 2.08 80
4 06/13/2022 14:31:24 0.03, -75.23 -0.08, -74.78 51.74 80
5 06/15/2022 02:50:25 -0.03, -75.22 -0.96, -79.38 473.37 80
6 06/16/2022 02:27:06 -0.03, -75.23 0.14, -74.38 96.09 80
7 06/17/2022 14:45:58 0.02, -75.25 0.82, -78.96 421.50 80
8 06/18/2022 14:27:59 0.02, -75.26 -0.27, -73.96 148.47 80
